Location: Unspecified
(35.6961°N, 0.0000°E)
Time: 22:25:04
(UTC+00:00)

Hubble Space Telescope - Pass Details

Date: 28 April 2019
Orbit: 537 x 540 km, 28.5° (Epoch: 23 May)

Event Time Altitude Azimuth Distance (km) Brightness Sun altitude
Exits shadow 04:03:45 21° 220° (SW) 1,252 2.1 -13.5°
Maximum altitude 04:05:37 29° 177° (S) 990 1.9 -13.2°
Drops below altitude 10° 04:09:14 10° 116° (ESE) 1,787 3.9 -12.5°
Sets 04:11:41 0° 105° (ESE) 2,678 5.1 -12.1°
